Location: Malanoce
(44.2500°N, 7.4667°E)
Time: 12:47:15
(UTC+00:00)

Cosmos 1602 - Pass Details

Date: 17 November 2025
Orbit: 368 x 377 km, 82.5° (Epoch: 06 December)

Event Time Altitude Azimuth Distance (km) Brightness Sun altitude
Rises 17:03:59 0° 1° (N) 2,288 6.8 -11.3°
Reaches altitude 10° 17:06:07 10° 12° (NNE) 1,431 5.7 -11.7°
Maximum altitude 17:08:56 31° 77° (ENE) 721 3.9 -12.2°
Drops below altitude 10° 17:11:44 10° 142° (SE) 1,426 5.7 -12.6°
Sets 17:13:52 0° 153° (SSE) 2,279 6.8 -13.0°
